FW7213 Weather Reports


Display with metric or nautical units.
time (UTC)temp
F
wind
direction
speed
MPH
gust
MPH
rain 1hr
in
rain 24hr
in
rain mn
in
humidity
%
barometer
mb
20260502193556 71 1 2.0 7.0 0.00 1.71 0.51 63 1014.3
20260502193101 71 352 3.0 7.0 0.00 1.71 0.51 63 1014.5
20260502192558 70 342 1.0 6.0 0.00 1.71 0.51 67 1014.3
20260502192055 70 331 2.0 6.0 0.00 1.71 0.51 64 1014.4
20260502191559 70 30 2.0 5.0 0.00 1.71 0.51 63 1014.4
20260502191101 71 322 3.0 6.0 0.00 1.71 0.51 63 1014.5
20260502190600 71 356 2.0 7.0 0.00 1.71 0.51 66 1014.4
20260502190107 70 338 3.0 7.0 0.00 1.71 0.51 66 1014.5
20260502185558 70 316 3.0 7.0 0.00 1.71 0.51 63 1014.3
20260502185059 70 265 3.0 5.0 0.00 1.71 0.51 64 1014.3
20260502184601 69 19 3.0 5.0 0.00 1.71 0.51 62 1014.5
20260502184058 70 23 2.0 5.0 0.00 1.71 0.51 64 1014.5
20260502183557 69 2 2.0 6.0 0.00 1.71 0.51 65 1014.6
20260502183057 70 331 2.0 6.0 0.00 1.71 0.51 68 1014.7
20260502182559 69 6 1.0 5.0 0.00 1.71 0.51 71 1014.6
20260502182103 68 342 2.0 5.0 0.00 1.71 0.51 71 1014.7
20260502181558 68 351 3.0 5.0 0.00 1.71 0.51 71 1014.6
20260502181058 68 341 2.0 5.0 0.00 1.71 0.51 78 1014.8
20260502180600 67 321 2.0 5.0 0.00 1.71 0.51 78 1014.7
20260502180123 67 339 1.0 4.0 0.00 1.71 0.51 82 1014.7
20260502164102 60 41 2.0 6.0 0.00 1.80 0.51 97 1015.0
20260502163558 60 338 1.0 4.0 0.00 1.80 0.51 97 1015.0
20260502163101 60 348 2.0 4.0 0.00 1.80 0.51 97 1015.1
20260502162558 60 318 1.0 3.0 0.00 1.80 0.51 97 1015.1
20260502162057 60 334 1.0 3.0 0.00 1.80 0.51 97 1015.1
20260502161600 60 335 1.0 3.0 0.00 1.80 0.51 97 1015.0
20260502161057 60 296 0.0 2.0 0.00 1.80 0.51 97 1015.1
20260502160558 60 356 0.0 2.0 0.00 1.80 0.51 97 1015.1
20260502160106 59 6 1.0 2.0 0.00 1.80 0.51 97 1015.0
20260502152132 57 32 2.0 4.0 0.00 1.82 0.51 97 1014.7
20260502151608 57 335 2.0 4.0 0.00 1.82 0.51 97 1014.8
20260502151102 57 14 2.0 5.0 0.00 1.82 0.51 97 1014.8
20260502150557 57 345 2.0 5.0 0.00 1.82 0.51 97 1014.8
20260502130558 53 274 0.0 1.0 0.01 1.81 0.50 97 1013.6
20260502130109 53 262 0.0 1.0 0.01 1.81 0.50 97 1013.6
20260502123557 52 0 0.0 1.0 0.01 1.81 0.50 97 1013.5
20260502123105 52 0 0.0 1.0 0.01 1.81 0.50 97 1013.1
20260502122600 52 0 0.0 1.0 0.01 1.81 0.50 97 1012.8
20260502122056 52 0 0.0 1.0 0.01 1.81 0.50 97 1013.1
20260502121608 52 0 0.0 1.0 0.00 1.80 0.49 97 1014.1
20260502121056 52 0 0.0 1.0 0.00 1.80 0.49 97 1014.2
20260502120558 52 0 0.0 1.0 0.00 1.80 0.49 97 1013.7
20260502115600 51 0 0.0 2.0 0.01 1.80 0.49 97 1013.2
20260502115055 51 0 0.0 1.0 0.01 1.80 0.49 97 1012.5
20260502114556 52 0 0.0 1.0 0.01 1.80 0.49 97 1013.0
20260502114054 51 0 0.0 1.0 0.01 1.80 0.49 97 1013.2
20260502113559 51 0 0.0 1.0 0.02 1.80 0.49 97 1013.0
20260502113057 51 3 0.0 1.0 0.02 1.80 0.49 97 1013.5
20260502112553 51 0 0.0 1.0 0.02 1.80 0.49 97 1013.8
20260502112057 51 319 0.0 1.0 0.03 1.80 0.49 97 1013.6
20260502111601 51 0 0.0 1.0 0.04 1.80 0.49 97 1013.7
20260502111055 51 0 0.0 1.0 0.04 1.80 0.49 97 1013.4
20260502110557 51 0 0.0 1.0 0.04 1.80 0.49 97 1013.2
20260502105558 51 0 0.0 1.0 0.05 1.82 0.48 97 1012.7
20260502105055 51 0 0.0 1.0 0.06 1.82 0.48 97 1012.7
20260502104557 51 30 0.0 1.0 0.06 1.82 0.48 97 1012.9
20260502104057 51 0 0.0 1.0 0.06 1.82 0.48 97 1012.8
20260502103554 51 32 0.0 1.0 0.05 1.81 0.47 97 1012.9
20260502103105 51 0 0.0 2.0 0.05 1.81 0.47 97 1013.3
20260502102554 51 0 0.0 2.0 0.05 1.81 0.47 97 1013.2
20260502102057 51 351 1.0 2.0 0.04 1.80 0.46 97 1013.3
20260502101620 51 352 0.0 2.0 0.03 1.79 0.45 97 1013.4
20260502101055 51 349 0.0 3.0 0.03 1.79 0.45 97 1013.3
20260502100555 51 0 0.0 3.0 0.03 1.79 0.45 97 1012.2
20260502100116 51 233 1.0 3.0 0.03 1.78 0.44 97 1011.9
20260502091054 51 27 1.0 3.0 0.11 1.76 0.42 97 1012.1
20260502090557 51 15 1.0 3.0 0.13 1.76 0.42 97 1011.9
20260502080107 52 22 0.0 1.0 0.12 1.62 0.27 97 1012.3
20260502071057 52 56 0.0 1.0 0.07 1.56 0.17 97 1012.3
20260502070558 52 0 0.0 1.0 0.06 1.55 0.16 97 1012.2
20260502070057 52 0 0.0 1.0 0.06 1.54 0.15 97 1012.0
20260502065600 53 0 0.0 3.0 0.06 1.54 0.15 97 1012.4
20260502065100 53 0 0.0 3.0 0.05 1.53 0.14 97 1012.5
20260502064601 53 0 0.0 2.0 0.05 1.52 0.13 97 1012.5
20260502064056 53 354 0.0 2.0 0.05 1.52 0.13 97 1012.3
20260502063556 53 0 0.0 2.0 0.05 1.51 0.12 97 1012.4
20260502063104 53 342 0.0 1.0 0.08 1.51 0.12 97 1012.4
20260502062602 53 0 0.0 1.0 0.08 1.50 0.11 97 1012.8
20260502062105 53 45 0.0 1.0 0.09 1.50 0.11 97 1012.8
20260502061558 53 0 0.0 2.0 0.08 1.49 0.10 97 1012.9
20260502061059 53 0 0.0 2.0 0.09 1.49 0.10 97 1013.0
20260502060558 53 0 0.0 3.0 0.09 1.49 0.10 97 1012.9
20260502060111 53 0 0.0 3.0 0.09 1.48 0.09 97 1013.2
20260502055600 53 0 0.0 2.0 0.09 1.48 0.09 97 1013.4
20260502055100 53 93 0.0 1.0 0.10 1.48 0.09 97 1013.3
20260502054600 54 0 0.0 1.0 0.10 1.47 0.08 97 1013.5
20260502054055 54 0 0.0 0.0 0.12 1.47 0.08 97 1013.6
20260502053555 54 0 0.0 1.0 0.12 1.46 0.07 97 1014.0
20260502053106 54 0 0.0 2.0 0.11 1.43 0.04 97 1014.1
20260502052556 53 298 0.0 2.0 0.13 1.42 0.03 97 1014.3
20260502052059 53 129 0.0 2.0 0.14 1.41 0.02 97 1013.4
20260502051603 53 0 0.0 2.0 0.16 1.41 0.02 97 1012.9
20260502051058 53 102 0.0 4.0 0.17 1.40 0.01 97 1012.9
20260502050559 53 0 0.0 4.0 0.18 1.40 0.01 97 1013.0
20260502050100 53 110 1.0 3.0 0.20 1.39 0.00 97 1013.3
20260502045555 53 119 0.0 2.0 0.25 1.39 1.39 97 1013.1
20260502045057 53 0 0.0 0.0 0.27 1.38 1.38 97 1013.1
20260502044557 53 0 0.0 2.0 0.29 1.37 1.37 97 1013.5
20260502044055 53 0 0.0 2.0 0.28 1.35 1.35 97 1013.7
20260502043554 53 188 0.0 1.0 0.28 1.34 1.34 97 1013.5
20260502043114 53 0 0.0 1.0 0.27 1.32 1.32 97 1013.5
20260502042555 53 0 0.0 1.0 0.25 1.29 1.29 97 1014.3
20260502042055 53 0 0.0 1.0 0.24 1.27 1.27 97 1013.9
20260502041559 53 0 0.0 1.0 0.22 1.25 1.25 97 1014.0
20260502041056 53 0 0.0 1.0 0.21 1.23 1.23 97 1014.0
20260502040556 53 0 0.0 1.0 0.20 1.22 1.22 97 1013.8
20260502040059 53 0 0.0 1.0 0.19 1.19 1.19 97 1013.5
20260502035556 53 0 0.0 0.0 0.15 1.14 1.14 97 1014.0
20260502035058 53 0 0.0 1.0 0.14 1.11 1.11 97 1013.9
20260502034554 53 0 0.0 1.0 0.12 1.08 1.08 97 1014.4
20260502034057 53 155 0.0 2.0 0.13 1.07 1.07 97 1014.0
20260502033557 53 0 0.0 2.0 0.12 1.05 1.05 97 1013.7
20260502033057 53 276 0.0 2.0 0.11 1.04 1.04 97 1013.5
20260502032557 53 0 0.0 1.0 0.12 1.04 1.04 97 1013.3
20260502032054 53 0 0.0 1.0 0.12 1.03 1.03 97 1013.5
20260502031557 53 0 0.0 1.0 0.14 1.03 1.03 97 1013.4
20260502031055 53 0 0.0 2.0 0.14 1.02 1.02 97 1013.1
20260502030555 53 0 0.0 2.0 0.16 1.02 1.02 97 1013.2
20260502030057 53 0 0.0 1.0 0.15 1.00 1.00 97 1013.5
20260502025557 53 0 0.0 1.0 0.13 0.98 0.98 97 1014.0
20260502025057 53 101 0.0 0.0 0.13 0.97 0.97 97 1014.1
20260502024555 53 0 0.0 1.0 0.13 0.96 0.96 97 1014.4
20260502024054 53 0 0.0 1.0 0.12 0.94 0.94 97 1014.2
20260502023558 53 0 0.0 1.0 0.13 0.94 0.94 97 1014.1
20260502023101 53 0 0.0 0.0 0.14 0.93 0.93 97 1014.0
20260502022558 53 0 0.0 0.0 0.14 0.92 0.92 97 1014.1
20260502022057 53 0 0.0 0.0 0.14 0.91 0.91 97 1014.3
20260502021601 53 0 0.0 1.0 0.13 0.89 0.89 97 1014.4
20260502021058 53 0 0.0 1.0 0.13 0.88 0.88 97 1014.6
20260502020558 53 0 0.0 3.0 0.12 0.86 0.86 97 1014.5
20260502020058 52 0 0.0 3.0 0.12 0.85 0.85 97 1014.2
20260502015558 52 142 0.0 4.0 0.12 0.85 0.85 97 1014.0
20260502015059 52 0 0.0 4.0 0.12 0.84 0.84 97 1013.7
20260502014558 52 0 0.0 3.0 0.11 0.83 0.83 97 1013.6
20260502014059 52 352 0.0 3.0 0.11 0.82 0.82 97 1013.5
20260502013559 52 232 0.0 2.0 0.12 0.81 0.81 97 1013.2
20260502013101 52 11 0.0 1.0 0.11 0.79 0.79 97 1013.3
20260502012558 53 0 0.0 1.0 0.11 0.78 0.78 97 1013.5
20260502012058 53 0 0.0 1.0 0.11 0.77 0.77 97 1013.6
20260502011610 53 348 0.0 1.0 0.11 0.76 0.76 97 1013.5
20260502011100 53 274 0.0 1.0 0.13 0.75 0.75 97 1013.5
20260502010602 53 0 0.0 1.0 0.13 0.74 0.74 97 1013.4
20260502010058 53 31 0.0 1.0 0.13 0.73 0.73 97 1013.2
20260502005558 53 0 0.0 1.0 0.15 0.73 0.73 97 1013.2
20260502005102 53 0 0.0 1.0 0.16 0.72 0.72 97 1013.4
20260502004606 53 0 0.0 1.0 0.19 0.72 0.72 97 1013.6
20260502004059 53 0 0.0 1.0 0.20 0.71 0.71 97 1013.5
20260502003558 53 0 0.0 1.0 0.19 0.69 0.69 97 1013.7
20260502003058 53 0 0.0 1.0 0.19 0.68 0.68 97 1014.2
20260502002600 54 0 0.0 1.0 0.20 0.67 0.67 97 1013.9
20260502002058 54 0 0.0 1.0 0.20 0.66 0.66 97 1013.8
20260502001557 54 0 0.0 1.0 0.21 0.65 0.65 97 1013.9
20260502001101 54 0 0.0 1.0 0.20 0.62 0.62 97 1014.2
20260502000558 54 0 0.0 2.0 0.20 0.61 0.61 97 1014.5
20260502000113 54 0 0.0 2.0 0.21 0.60 0.60 97 1014.4
20260501235558 54 94 0.0 1.0 0.26 0.58 0.58 97 1013.6
20260501235057 54 354 0.0 1.0 0.32 0.56 0.56 97 1013.5
20260501234600 54 0 0.0 0.0 0.30 0.52 0.52 97 1013.8
20260501234100 54 0 0.0 0.0 0.28 0.51 0.51 97 1013.5
20260501233558 54 0 0.0 0.0 0.27 0.50 0.50 97 1013.7
20260501233058 54 0 0.0 0.0 0.27 0.49 0.49 97 1013.7
20260501232558 54 0 0.0 1.0 0.25 0.47 0.47 97 1013.3
20260501232059 54 0 0.0 1.0 0.24 0.46 0.46 97 1013.7
20260501231607 54 268 0.0 1.0 0.22 0.44 0.44 97 1013.8
20260501231058 54 0 0.0 1.0 0.21 0.42 0.42 97 1013.4
20260501230558 54 0 0.0 1.0 0.20 0.41 0.41 97 1013.6
20260501230057 55 66 0.0 4.0 0.19 0.39 0.39 97 1013.5
20260501225558 55 255 1.0 4.0 0.12 0.32 0.32 97 1014.2
20260501225100 55 138 1.0 4.0 0.04 0.24 0.24 97 1014.1
20260501224603 55 250 0.0 1.0 0.04 0.23 0.23 97 1013.2
20260501224057 55 0 0.0 2.0 0.04 0.23 0.23 97 1012.4
20260501223557 55 0 0.0 2.0 0.04 0.23 0.23 97 1012.3
20260501223114 55 115 0.0 2.0 0.03 0.22 0.22 97 1012.2
20260501222555 56 0 0.0 7.0 0.03 0.22 0.22 97 1012.3
20260501222058 56 0 1.0 7.0 0.03 0.22 0.22 97 1012.6
20260501221617 57 0 1.0 4.0 0.03 0.22 0.22 97 1012.7
20260501221054 58 0 0.0 2.0 0.02 0.21 0.21 97 1012.9
20260501220554 58 115 0.0 2.0 0.02 0.21 0.21 97 1012.5
20260501220057 59 0 0.0 1.0 0.01 0.20 0.20 97 1012.7
20260501215602 59 0 0.0 1.0 0.01 0.20 0.20 97 1013.2
20260501215057 59 0 0.0 1.0 0.01 0.20 0.20 97 1013.0
20260501214557 59 0 0.0 1.0 0.00 0.19 0.19 97 1012.9
20260501214055 59 0 0.0 1.0 0.00 0.19 0.19 97 1013.1
20260501213555 59 0 0.0 1.0 0.00 0.19 0.19 97 1012.9
20260501213057 59 0 0.0 2.0 0.00 0.19 0.19 97 1012.9
20260501212558 59 151 0.0 2.0 0.00 0.19 0.19 97 1012.7
20260501212058 60 11 0.0 0.0 0.00 0.19 0.19 97 1012.5
20260501211559 60 0 0.0 1.0 0.00 0.19 0.19 97 1012.5
20260501211054 60 0 0.0 1.0 0.00 0.19 0.19 97 1012.6
20260501210554 59 0 0.0 1.0 0.00 0.19 0.19 97 1012.7
20260501210057 60 0 0.0 1.0 0.00 0.19 0.19 97 1012.6
20260501205555 59 0 0.0 2.0 0.00 0.19 0.19 97 1012.5
20260501205055 59 0 0.0 2.0 0.00 0.19 0.19 97 1012.3
20260501204556 59 20 0.0 2.0 0.00 0.19 0.19 97 1012.3
20260501204054 60 32 0.0 2.0 0.00 0.19 0.19 97 1012.4
20260501203600 59 0 0.0 4.0 0.00 0.19 0.19 97 1012.4
20260501203056 59 20 1.0 4.0 0.00 0.19 0.19 97 1012.5
20260501202558 59 30 0.0 4.0 0.00 0.19 0.19 97 1012.9
20260501202100 59 0 0.0 4.0 0.00 0.19 0.19 97 1013.2
20260501201600 60 7 0.0 4.0 0.00 0.19 0.19 97 1013.4
20260501201058 60 0 0.0 1.0 0.00 0.19 0.19 97 1013.4
20260501200559 60 0 0.0 1.0 0.00 0.19 0.19 97 1013.5
20260501200059 61 0 0.0 1.0 0.00 0.19 0.19 97 1013.3
20260501195558 60 0 0.0 1.0 0.00 0.19 0.19 97 1013.4
20260501195059 61 19 0.0 1.0 0.00 0.19 0.19 97 1013.6
20260501194557 60 46 0.0 3.0 0.00 0.19 0.19 97 1013.7
20260501194102 60 0 0.0 3.0 0.00 0.19 0.19 97 1013.7